{"data":{"norad_id":61899,"intl_designator":"2024-205F","name":"2024-205F","alt_names":[],"object_type":"PAYLOAD","status":"ACTIVE","operator":null,"country":"PRC","launch_date":"2024-11-11","launch_site_code":"JSC","launch_vehicle":null,"mission":null,"orbit_class":"UNKNOWN","rcs_meters":null,"size_class":null,"mass_kg":null,"dimensions":null,"purposes":[],"wikipedia_slug":null,"has_3d_model":false,"image_url":null,"decayed_at":null,"tle_current":{"epoch":"2026-09-22T23:40:49.270368Z","epoch_age_seconds":87201,"freshness":"FRESH","line1":"1 61899U 24205F   26265.98668137  .00005351  00000+0  27668-3 0  9990","line2":"2 61899  97.4016 334.9566 0007447  58.4481 301.7479 15.16652388103099","mean_motion":15.16652388,"eccentricity":0.0007447,"inclination_deg":97.4016,"raan_deg":334.9566,"arg_perigee_deg":58.4481,"mean_anomaly_deg":301.7479,"bstar":0.00027668,"rev_number":10309,"period_min":94.945948814212,"perigee_km":510.83256760484,"apogee_km":521.10064551645,"semimajor_km":6894.1036065606,"source":"CELESTRAK","updated_at":"2026-09-23T09:00:21.098151Z"}}}